| time (UTC) | temp F | wind direction | speed MPH | gust MPH | rain 1hr in | rain 24hr in | rain mn in | humidity % | barometer mb |
| 20260904195744 | 99 | 76 | 0.0 | 2.0 | 0.00 | 0.00 | 0.00 | 45 | 1011.2 |
| 20260904195242 | 97 | 112 | 1.0 | 1.0 | 0.00 | 0.00 | 0.00 | 46 | 1011.5 |
| 20260904194738 | 97 | 89 | 2.0 | 6.0 | 0.00 | 0.00 | 0.00 | 45 | 1011.6 |
| 20260904194236 | 98 | 104 | 3.0 | 5.0 | 0.00 | 0.00 | 0.00 | 45 | 1011.6 |
| 20260904193732 | 98 | 100 | 1.0 | 1.0 | 0.00 | 0.00 | 0.00 | 45 | 1011.5 |
| 20260904193228 | 97 | 124 | 1.0 | 3.0 | 0.00 | 0.00 | 0.00 | 45 | 1011.6 |
| 20260904192723 | 97 | 88 | 2.0 | 5.0 | 0.00 | 0.00 | 0.00 | 46 | 1011.8 |
| 20260904192218 | 98 | 96 | 1.0 | 5.0 | 0.00 | 0.00 | 0.00 | 45 | 1011.8 |
| 20260904191715 | 98 | 183 | 1.0 | 2.0 | 0.00 | 0.00 | 0.00 | 44 | 1011.7 |
| 20260904191211 | 98 | 79 | 1.0 | 2.0 | 0.00 | 0.00 | 0.00 | 45 | 1011.7 |
| 20260904190707 | 97 | 340 | 1.0 | 3.0 | 0.00 | 0.00 | 0.00 | 47 | 1011.8 |
| 20260904190203 | 97 | 83 | 0.0 | 2.0 | 0.00 | 0.00 | 0.00 | 47 | 1011.9 |
| 20260904185659 | 96 | 63 | 1.0 | 1.0 | 0.00 | 0.00 | 0.00 | 48 | 1012.2 |
| 20260904185154 | 96 | 86 | 1.0 | 7.0 | 0.00 | 0.00 | 0.00 | 48 | 1012.2 |
| 20260904184652 | 96 | 97 | 2.0 | 6.0 | 0.00 | 0.00 | 0.00 | 48 | 1012.2 |
| 20260904184148 | 95 | 83 | 0.0 | 2.0 | 0.00 | 0.00 | 0.00 | 50 | 1012.3 |
| 20260904183644 | 95 | 80 | 1.0 | 6.0 | 0.00 | 0.00 | 0.00 | 49 | 1012.3 |
| 20260904183143 | 96 | 72 | 0.0 | 3.0 | 0.00 | 0.00 | 0.00 | 51 | 1012.4 |
| 20260904182639 | 96 | 83 | 2.0 | 3.0 | 0.00 | 0.00 | 0.00 | 51 | 1012.5 |
| 20260904182133 | 96 | 72 | 0.0 | 1.0 | 0.00 | 0.00 | 0.00 | 52 | 1012.5 |
| 20260904181629 | 96 | 73 | 0.0 | 2.0 | 0.00 | 0.00 | 0.00 | 51 | 1012.5 |
| 20260904181124 | 94 | 106 | 1.0 | 2.0 | 0.00 | 0.00 | 0.00 | 52 | 1012.7 |
| 20260904180620 | 94 | 136 | 1.0 | 2.0 | 0.00 | 0.00 | 0.00 | 53 | 1012.8 |
| 20260904180115 | 95 | 66 | 0.0 | 8.0 | 0.00 | 0.00 | 0.00 | 53 | 1013.0 |
| 20260904175614 | 95 | 80 | 0.0 | 1.0 | 0.00 | 0.00 | 0.00 | 52 | 1013.1 |
| 20260904175112 | 96 | 133 | 1.0 | 2.0 | 0.00 | 0.00 | 0.00 | 50 | 1013.4 |
| 20260904174607 | 95 | 69 | 0.0 | 0.0 | 0.00 | 0.00 | 0.00 | 50 | 1013.2 |
| 20260904174104 | 94 | 88 | 0.0 | 1.0 | 0.00 | 0.00 | 0.00 | 51 | 1013.2 |
| 20260904173604 | 94 | 66 | 0.0 | 2.0 | 0.00 | 0.00 | 0.00 | 52 | 1013.2 |
| 20260904173059 | 93 | 114 | 1.0 | 2.0 | 0.00 | 0.00 | 0.00 | 55 | 1013.2 |
| 20260904172555 | 94 | 116 | 3.0 | 5.0 | 0.00 | 0.00 | 0.00 | 53 | 1013.6 |
| 20260904172054 | 94 | 65 | 0.0 | 5.0 | 0.00 | 0.00 | 0.00 | 53 | 1013.5 |
| 20260904171549 | 93 | 167 | 0.0 | 2.0 | 0.00 | 0.00 | 0.00 | 54 | 1013.4 |
| 20260904171045 | 94 | 100 | 1.0 | 3.0 | 0.00 | 0.00 | 0.00 | 54 | 1013.6 |
| 20260904170540 | 93 | 68 | 1.0 | 3.0 | 0.00 | 0.00 | 0.00 | 54 | 1013.5 |
| 20260904170037 | 93 | 90 | 1.0 | 1.0 | 0.00 | 0.00 | 0.00 | 56 | 1013.7 |
| 20260904165535 | 92 | 52 | 2.0 | 3.0 | 0.00 | 0.00 | 0.00 | 57 | 1013.7 |
| 20260904165035 | 93 | 92 | 1.0 | 2.0 | 0.00 | 0.00 | 0.00 | 57 | 1013.6 |
| 20260904164530 | 92 | 73 | 0.0 | 5.0 | 0.00 | 0.00 | 0.00 | 59 | 1013.6 |
| 20260904164026 | 91 | 83 | 1.0 | 3.0 | 0.00 | 0.00 | 0.00 | 59 | 1013.6 |
| 20260904163525 | 92 | 83 | 0.0 | 6.0 | 0.00 | 0.00 | 0.00 | 58 | 1013.5 |
| 20260904163021 | 91 | 63 | 0.0 | 1.0 | 0.00 | 0.00 | 0.00 | 60 | 1013.8 |
| 20260904162515 | 91 | 102 | 1.0 | 5.0 | 0.00 | 0.00 | 0.00 | 60 | 1013.8 |
| 20260904162011 | 91 | 42 | 0.0 | 2.0 | 0.00 | 0.00 | 0.00 | 60 | 1013.7 |
| 20260904161506 | 91 | 68 | 0.0 | 5.0 | 0.00 | 0.00 | 0.00 | 61 | 1013.9 |
| 20260904161001 | 91 | 113 | 2.0 | 2.0 | 0.00 | 0.00 | 0.00 | 60 | 1013.7 |
| 20260904160455 | 90 | 55 | 1.0 | 1.0 | 0.00 | 0.00 | 0.00 | 63 | 1013.9 |
| 20260904155951 | 91 | 83 | 1.0 | 1.0 | 0.00 | 0.00 | 0.00 | 63 | 1013.7 |
| 20260904155451 | 90 | 125 | 3.0 | 5.0 | 0.00 | 0.00 | 0.00 | 63 | 1013.7 |
| 20260904154949 | 89 | 133 | 1.0 | 3.0 | 0.00 | 0.00 | 0.00 | 66 | 1013.7 |
| 20260904154444 | 89 | 67 | 1.0 | 5.0 | 0.00 | 0.00 | 0.00 | 68 | 1013.7 |
| 20260904153939 | 89 | 67 | 0.0 | 2.0 | 0.00 | 0.00 | 0.00 | 67 | 1013.8 |
| 20260904153434 | 89 | 70 | 0.0 | 3.0 | 0.00 | 0.00 | 0.00 | 67 | 1013.5 |
| 20260904152931 | 88 | 85 | 1.0 | 2.0 | 0.00 | 0.00 | 0.00 | 69 | 1013.5 |
| 20260904152426 | 87 | 121 | 3.0 | 3.0 | 0.00 | 0.00 | 0.00 | 70 | 1013.6 |
| 20260904151925 | 87 | 77 | 0.0 | 3.0 | 0.00 | 0.00 | 0.00 | 72 | 1013.7 |
| 20260904151421 | 87 | 121 | 1.0 | 2.0 | 0.00 | 0.00 | 0.00 | 73 | 1013.5 |
| 20260904150915 | 87 | 87 | 1.0 | 2.0 | 0.00 | 0.00 | 0.00 | 75 | 1013.6 |
| 20260904150411 | 87 | 63 | 0.0 | 3.0 | 0.00 | 0.00 | 0.00 | 75 | 1013.4 |
| 20260904145908 | 86 | 94 | 1.0 | 2.0 | 0.00 | 0.00 | 0.00 | 75 | 1013.7 |
| 20260904145405 | 86 | 62 | 1.0 | 2.0 | 0.00 | 0.00 | 0.00 | 77 | 1013.6 |
| 20260904144900 | 85 | 53 | 0.0 | 1.0 | 0.00 | 0.00 | 0.00 | 79 | 1013.7 |
| 20260904144356 | 85 | 82 | 2.0 | 3.0 | 0.00 | 0.00 | 0.00 | 78 | 1013.5 |
| 20260904143851 | 84 | 74 | 0.0 | 1.0 | 0.00 | 0.00 | 0.00 | 80 | 1013.5 |
| 20260904143348 | 84 | 85 | 0.0 | 1.0 | 0.00 | 0.00 | 0.00 | 81 | 1013.6 |
| 20260904142844 | 83 | 67 | 0.0 | 3.0 | 0.00 | 0.00 | 0.00 | 82 | 1013.6 |
| 20260904142339 | 83 | 70 | 1.0 | 1.0 | 0.00 | 0.00 | 0.00 | 84 | 1013.6 |
| 20260904141833 | 82 | 82 | 0.0 | 1.0 | 0.00 | 0.00 | 0.00 | 86 | 1013.6 |
| 20260904141329 | 82 | 88 | 0.0 | 1.0 | 0.00 | 0.00 | 0.00 | 86 | 1013.5 |
| 20260904140825 | 82 | 78 | 0.0 | 2.0 | 0.00 | 0.00 | 0.00 | 87 | 1013.7 |
| 20260904140320 | 81 | 115 | 1.0 | 2.0 | 0.00 | 0.00 | 0.00 | 88 | 1013.6 |
| 20260904135819 | 80 | 115 | 2.0 | 3.0 | 0.00 | 0.00 | 0.00 | 89 | 1013.8 |
| 20260904135314 | 80 | 103 | 2.0 | 2.0 | 0.00 | 0.00 | 0.00 | 90 | 1013.5 |
| 20260904134810 | 79 | 90 | 1.0 | 1.0 | 0.00 | 0.00 | 0.00 | 91 | 1013.5 |
| 20260904134310 | 79 | 105 | 1.0 | 2.0 | 0.00 | 0.00 | 0.00 | 91 | 1013.5 |
| 20260904133805 | 79 | 72 | 2.0 | 2.0 | 0.00 | 0.00 | 0.00 | 92 | 1013.3 |
| 20260904133300 | 78 | 78 | 0.0 | 3.0 | 0.00 | 0.00 | 0.00 | 92 | 1013.4 |
| 20260904132800 | 78 | 105 | 3.0 | 3.0 | 0.00 | 0.00 | 0.00 | 92 | 1013.5 |
| 20260904132255 | 78 | 79 | 1.0 | 2.0 | 0.00 | 0.00 | 0.00 | 93 | 1013.2 |
| 20260904131754 | 78 | 77 | 0.0 | 2.0 | 0.00 | 0.00 | 0.00 | 93 | 1013.2 |
| 20260904131250 | 78 | 68 | 0.0 | 1.0 | 0.00 | 0.00 | 0.00 | 93 | 1012.8 |
| 20260904130750 | 77 | 80 | 1.0 | 1.0 | 0.00 | 0.00 | 0.00 | 93 | 1013.1 |
| 20260904130250 | 77 | 62 | 0.0 | 1.0 | 0.00 | 0.00 | 0.00 | 93 | 1013.0 |
| 20260904125746 | 77 | 31 | 1.0 | 2.0 | 0.00 | 0.00 | 0.00 | 93 | 1012.8 |
| 20260904125241 | 77 | 106 | 1.0 | 2.0 | 0.00 | 0.00 | 0.00 | 93 | 1013.0 |
| 20260904124735 | 77 | 74 | 0.0 | 0.0 | 0.00 | 0.00 | 0.00 | 93 | 1012.8 |
| 20260904124232 | 77 | 77 | 1.0 | 1.0 | 0.00 | 0.00 | 0.00 | 93 | 1013.0 |
| 20260904123732 | 77 | 82 | 0.0 | 1.0 | 0.00 | 0.00 | 0.00 | 93 | 1012.7 |
| 20260904123227 | 76 | 74 | 0.0 | 1.0 | 0.00 | 0.00 | 0.00 | 92 | 1012.6 |
| 20260904122722 | 76 | 74 | 0.0 | 0.0 | 0.00 | 0.00 | 0.00 | 92 | 1012.8 |
| 20260904122216 | 76 | 71 | 0.0 | 2.0 | 0.00 | 0.00 | 0.00 | 92 | 1012.8 |
| 20260904121712 | 76 | 85 | 1.0 | 2.0 | 0.00 | 0.00 | 0.00 | 92 | 1012.6 |
| 20260904121207 | 76 | 71 | 0.0 | 1.0 | 0.00 | 0.00 | 0.00 | 92 | 1012.7 |
| 20260904120704 | 76 | 73 | 0.0 | 1.0 | 0.00 | 0.00 | 0.00 | 92 | 1012.7 |
| 20260904120200 | 76 | 84 | 0.0 | 1.0 | 0.00 | 0.00 | 0.00 | 91 | 1012.4 |
| 20260904115655 | 76 | 82 | 0.0 | 1.0 | 0.00 | 0.00 | 0.00 | 91 | 1012.7 |
| 20260904115149 | 76 | 89 | 1.0 | 1.0 | 0.00 | 0.00 | 0.00 | 91 | 1012.4 |
| 20260904114644 | 77 | 81 | 1.0 | 2.0 | 0.00 | 0.00 | 0.00 | 91 | 1012.6 |
| 20260904114143 | 77 | 74 | 0.0 | 1.0 | 0.00 | 0.00 | 0.00 | 91 | 1012.5 |
| 20260904113638 | 77 | 53 | 1.0 | 1.0 | 0.00 | 0.00 | 0.00 | 91 | 1012.4 |
| 20260904113137 | 77 | 76 | 0.0 | 0.0 | 0.00 | 0.00 | 0.00 | 90 | 1012.3 |
| 20260904112633 | 77 | 72 | 0.0 | 1.0 | 0.00 | 0.00 | 0.00 | 90 | 1012.2 |
| 20260904112129 | 77 | 74 | 0.0 | 0.0 | 0.00 | 0.00 | 0.00 | 90 | 1012.3 |
| 20260904111624 | 77 | 71 | 0.0 | 0.0 | 0.00 | 0.00 | 0.00 | 90 | 1012.4 |
| 20260904111120 | 77 | 65 | 0.0 | 1.0 | 0.00 | 0.00 | 0.00 | 89 | 1012.3 |
| 20260904110615 | 77 | 75 | 1.0 | 1.0 | 0.00 | 0.00 | 0.00 | 89 | 1012.2 |
| 20260904110115 | 77 | 84 | 0.0 | 1.0 | 0.00 | 0.00 | 0.00 | 89 | 1012.2 |
| 20260904105615 | 77 | 96 | 1.0 | 1.0 | 0.00 | 0.00 | 0.00 | 89 | 1012.2 |
| 20260904105109 | 77 | 73 | 0.0 | 1.0 | 0.00 | 0.00 | 0.00 | 88 | 1012.3 |
| 20260904104605 | 77 | 75 | 0.0 | 0.0 | 0.00 | 0.00 | 0.00 | 88 | 1012.1 |
| 20260904104100 | 77 | 79 | 1.0 | 1.0 | 0.00 | 0.00 | 0.00 | 88 | 1012.2 |
| 20260904103556 | 77 | 75 | 0.0 | 0.0 | 0.00 | 0.00 | 0.00 | 88 | 1012.1 |
| 20260904103052 | 77 | 66 | 0.0 | 1.0 | 0.00 | 0.00 | 0.00 | 88 | 1011.9 |
| 20260904102548 | 77 | 74 | 0.0 | 1.0 | 0.00 | 0.00 | 0.00 | 87 | 1011.9 |
| 20260904102043 | 77 | 76 | 0.0 | 1.0 | 0.00 | 0.00 | 0.00 | 87 | 1011.9 |
| 20260904101540 | 77 | 72 | 0.0 | 0.0 | 0.00 | 0.00 | 0.00 | 87 | 1012.1 |
| 20260904101035 | 77 | 74 | 0.0 | 0.0 | 0.00 | 0.00 | 0.00 | 87 | 1012.0 |
| 20260904100530 | 77 | 79 | 0.0 | 1.0 | 0.00 | 0.00 | 0.00 | 87 | 1011.9 |
| 20260904100020 | 77 | 79 | 1.0 | 1.0 | 0.00 | 0.00 | 0.00 | 86 | 1011.9 |
| 20260904095514 | 77 | 74 | 0.0 | 1.0 | 0.00 | 0.00 | 0.00 | 86 | 1012.0 |
| 20260904095010 | 78 | 77 | 0.0 | 0.0 | 0.00 | 0.00 | 0.00 | 86 | 1012.0 |
| 20260904094504 | 78 | 90 | 0.0 | 1.0 | 0.00 | 0.00 | 0.00 | 86 | 1012.0 |
| 20260904094000 | 78 | 76 | 0.0 | 1.0 | 0.00 | 0.00 | 0.00 | 86 | 1011.9 |
| 20260904093456 | 78 | 82 | 2.0 | 3.0 | 0.00 | 0.00 | 0.00 | 85 | 1011.8 |
| 20260904092951 | 78 | 80 | 0.0 | 1.0 | 0.00 | 0.00 | 0.00 | 85 | 1011.8 |
| 20260904092447 | 78 | 79 | 1.0 | 2.0 | 0.00 | 0.00 | 0.00 | 85 | 1012.0 |
| 20260904091943 | 78 | 76 | 0.0 | 1.0 | 0.00 | 0.00 | 0.00 | 85 | 1012.1 |
| 20260904091438 | 78 | 88 | 1.0 | 3.0 | 0.00 | 0.00 | 0.00 | 84 | 1011.9 |
| 20260904090932 | 78 | 87 | 0.0 | 1.0 | 0.00 | 0.00 | 0.00 | 84 | 1011.9 |
| 20260904090429 | 78 | 89 | 1.0 | 2.0 | 0.00 | 0.00 | 0.00 | 84 | 1011.9 |
| 20260904085923 | 78 | 82 | 0.0 | 1.0 | 0.00 | 0.00 | 0.00 | 84 | 1012.0 |
| 20260904085419 | 78 | 85 | 0.0 | 2.0 | 0.00 | 0.00 | 0.00 | 84 | 1011.8 |
| 20260904084913 | 78 | 85 | 0.0 | 1.0 | 0.00 | 0.00 | 0.00 | 84 | 1012.1 |
| 20260904084410 | 78 | 77 | 0.0 | 1.0 | 0.00 | 0.00 | 0.00 | 83 | 1011.9 |
| 20260904083905 | 78 | 68 | 1.0 | 1.0 | 0.00 | 0.00 | 0.00 | 83 | 1011.9 |
| 20260904083402 | 78 | 74 | 0.0 | 1.0 | 0.00 | 0.00 | 0.00 | 83 | 1011.9 |
| 20260904082857 | 78 | 84 | 1.0 | 1.0 | 0.00 | 0.00 | 0.00 | 83 | 1011.9 |
| 20260904082351 | 78 | 76 | 0.0 | 0.0 | 0.00 | 0.00 | 0.00 | 82 | 1011.7 |
| 20260904081847 | 78 | 74 | 0.0 | 0.0 | 0.00 | 0.00 | 0.00 | 82 | 1011.8 |
| 20260904081342 | 78 | 110 | 1.0 | 1.0 | 0.00 | 0.00 | 0.00 | 82 | 1011.7 |
| 20260904080838 | 78 | 78 | 0.0 | 2.0 | 0.00 | 0.00 | 0.00 | 81 | 1011.8 |
| 20260904080333 | 79 | 61 | 0.0 | 1.0 | 0.00 | 0.00 | 0.00 | 81 | 1011.8 |
| 20260904075829 | 79 | 72 | 0.0 | 0.0 | 0.00 | 0.00 | 0.00 | 81 | 1011.8 |
| 20260904075324 | 79 | 75 | 0.0 | 0.0 | 0.00 | 0.00 | 0.00 | 81 | 1011.8 |
| 20260904074822 | 79 | 79 | 0.0 | 1.0 | 0.00 | 0.00 | 0.00 | 80 | 1011.7 |
| 20260904074318 | 79 | 77 | 0.0 | 1.0 | 0.00 | 0.00 | 0.00 | 80 | 1011.6 |
| 20260904073814 | 79 | 88 | 1.0 | 2.0 | 0.00 | 0.00 | 0.00 | 80 | 1011.5 |
| 20260904073309 | 79 | 69 | 0.0 | 1.0 | 0.00 | 0.00 | 0.00 | 80 | 1011.8 |
| 20260904072805 | 79 | 68 | 0.0 | 2.0 | 0.00 | 0.00 | 0.00 | 80 | 1011.7 |
| 20260904072306 | 79 | 78 | 0.0 | 1.0 | 0.00 | 0.00 | 0.00 | 79 | 1011.7 |
| 20260904071800 | 79 | 78 | 0.0 | 1.0 | 0.00 | 0.00 | 0.00 | 79 | 1011.7 |
| 20260904071255 | 79 | 76 | 0.0 | 1.0 | 0.00 | 0.00 | 0.00 | 79 | 1011.8 |
| 20260904070749 | 79 | 76 | 1.0 | 2.0 | 0.00 | 0.00 | 0.00 | 78 | 1011.9 |
| 20260904070249 | 79 | 73 | 0.0 | 0.0 | 0.00 | 0.00 | 0.00 | 78 | 1011.8 |
| 20260904065743 | 79 | 81 | 0.0 | 1.0 | 0.00 | 0.00 | 0.00 | 78 | 1012.0 |
| 20260904065240 | 80 | 78 | 0.0 | 1.0 | 0.00 | 0.00 | 0.00 | 77 | 1011.9 |
| 20260904064739 | 80 | 75 | 0.0 | 1.0 | 0.00 | 0.00 | 0.00 | 77 | 1011.9 |
| 20260904064235 | 80 | 79 | 0.0 | 1.0 | 0.00 | 0.00 | 0.00 | 77 | 1012.0 |
| 20260904063731 | 80 | 98 | 0.0 | 2.0 | 0.00 | 0.00 | 0.00 | 77 | 1012.0 |
| 20260904063227 | 80 | 74 | 0.0 | 0.0 | 0.00 | 0.00 | 0.00 | 77 | 1012.1 |
| 20260904062723 | 80 | 70 | 0.0 | 2.0 | 0.00 | 0.00 | 0.00 | 76 | 1011.9 |
| 20260904062218 | 80 | 86 | 0.0 | 2.0 | 0.00 | 0.00 | 0.00 | 76 | 1011.9 |
| 20260904061714 | 80 | 76 | 0.0 | 1.0 | 0.00 | 0.00 | 0.00 | 76 | 1012.0 |
| 20260904061210 | 80 | 73 | 0.0 | 1.0 | 0.00 | 0.00 | 0.00 | 76 | 1012.1 |
| 20260904060707 | 80 | 86 | 1.0 | 1.0 | 0.00 | 0.00 | 0.00 | 75 | 1012.0 |
| 20260904060202 | 80 | 72 | 0.0 | 1.0 | 0.00 | 0.00 | 0.00 | 75 | 1012.1 |
| 20260904055657 | 80 | 97 | 2.0 | 2.0 | 0.00 | 0.00 | 0.00 | 75 | 1011.8 |
| 20260904055152 | 80 | 123 | 2.0 | 2.0 | 0.00 | 0.00 | 0.00 | 75 | 1011.9 |
| 20260904054648 | 80 | 76 | 0.0 | 3.0 | 0.00 | 0.00 | 0.00 | 75 | 1012.2 |
| 20260904054144 | 80 | 118 | 1.0 | 2.0 | 0.00 | 0.00 | 0.00 | 74 | 1011.9 |
| 20260904053644 | 80 | 92 | 1.0 | 1.0 | 0.00 | 0.00 | 0.00 | 74 | 1012.0 |
| 20260904053138 | 80 | 73 | 0.0 | 3.0 | 0.00 | 0.00 | 0.00 | 74 | 1011.9 |
| 20260904052635 | 80 | 82 | 0.0 | 1.0 | 0.00 | 0.00 | 0.00 | 74 | 1011.9 |
| 20260904052130 | 80 | 84 | 2.0 | 2.0 | 0.00 | 0.00 | 0.00 | 74 | 1011.9 |
| 20260904051627 | 81 | 84 | 1.0 | 2.0 | 0.00 | 0.00 | 0.00 | 73 | 1011.9 |
| 20260904051121 | 81 | 89 | 1.0 | 3.0 | 0.00 | 0.00 | 0.00 | 73 | 1012.0 |
| 20260904050616 | 80 | 124 | 5.0 | 6.0 | 0.00 | 0.00 | 0.00 | 73 | 1011.8 |
| 20260904050113 | 81 | 109 | 1.0 | 3.0 | 0.00 | 0.00 | 0.00 | 73 | 1011.8 |
| 20260904045607 | 81 | 88 | 1.0 | 2.0 | 0.00 | 0.01 | 0.01 | 72 | 1011.7 |
| 20260904045102 | 81 | 76 | 1.0 | 3.0 | 0.00 | 0.01 | 0.01 | 72 | 1011.6 |
| 20260904044557 | 81 | 82 | 0.0 | 1.0 | 0.00 | 0.01 | 0.01 | 71 | 1011.7 |
| 20260904044054 | 81 | 78 | 1.0 | 1.0 | 0.00 | 0.01 | 0.01 | 71 | 1011.9 |
| 20260904043550 | 81 | 75 | 0.0 | 1.0 | 0.00 | 0.01 | 0.01 | 71 | 1011.7 |
| 20260904043046 | 81 | 62 | 1.0 | 2.0 | 0.00 | 0.01 | 0.01 | 70 | 1011.8 |
| 20260904042542 | 81 | 80 | 0.0 | 1.0 | 0.00 | 0.01 | 0.01 | 70 | 1011.8 |
| 20260904042037 | 81 | 77 | 1.0 | 2.0 | 0.00 | 0.01 | 0.01 | 71 | 1012.0 |
| 20260904041533 | 81 | 107 | 1.0 | 2.0 | 0.00 | 0.01 | 0.01 | 71 | 1011.9 |
| 20260904041029 | 81 | 51 | 0.0 | 1.0 | 0.00 | 0.01 | 0.01 | 71 | 1012.0 |
| 20260904040528 | 81 | 82 | 0.0 | 2.0 | 0.00 | 0.01 | 0.01 | 70 | 1012.0 |
| 20260904040026 | 82 | 98 | 1.0 | 3.0 | 0.00 | 0.01 | 0.01 | 70 | 1012.0 |
| 20260904035526 | 82 | 81 | 2.0 | 2.0 | 0.00 | 0.01 | 0.01 | 70 | 1012.1 |
| 20260904035025 | 82 | 125 | 2.0 | 3.0 | 0.00 | 0.01 | 0.01 | 69 | 1012.2 |
| 20260904034520 | 82 | 116 | 1.0 | 7.0 | 0.00 | 0.01 | 0.01 | 69 | 1012.0 |
| 20260904034015 | 82 | 90 | 1.0 | 2.0 | 0.00 | 0.01 | 0.01 | 69 | 1011.8 |
| 20260904033511 | 82 | 119 | 1.0 | 2.0 | 0.00 | 0.01 | 0.01 | 70 | 1011.9 |
| 20260904033009 | 82 | 101 | 0.0 | 3.0 | 0.00 | 0.01 | 0.01 | 70 | 1011.9 |
| 20260904032503 | 82 | 107 | 1.0 | 2.0 | 0.00 | 0.01 | 0.01 | 71 | 1012.1 |
| 20260904032002 | 82 | 110 | 2.0 | 6.0 | 0.00 | 0.01 | 0.01 | 71 | 1012.2 |
| 20260904031457 | 83 | 79 | 0.0 | 1.0 | 0.00 | 0.01 | 0.01 | 71 | 1011.8 |
| 20260904030954 | 83 | 78 | 0.0 | 2.0 | 0.00 | 0.01 | 0.01 | 71 | 1012.1 |
| 20260904030449 | 83 | 97 | 1.0 | 3.0 | 0.00 | 0.01 | 0.01 | 70 | 1011.9 |
| 20260904025944 | 84 | 59 | 1.0 | 5.0 | 0.00 | 0.01 | 0.01 | 70 | 1011.8 |
| 20260904025440 | 83 | 134 | 2.0 | 5.0 | 0.00 | 0.01 | 0.01 | 70 | 1011.9 |
| 20260904024940 | 83 | 77 | 0.0 | 1.0 | 0.00 | 0.01 | 0.01 | 72 | 1011.8 |
| 20260904024435 | 84 | 115 | 1.0 | 5.0 | 0.00 | 0.01 | 0.01 | 71 | 1011.7 |
| 20260904023931 | 84 | 112 | 1.0 | 1.0 | 0.00 | 0.01 | 0.01 | 71 | 1011.6 |
| 20260904023427 | 84 | 100 | 0.0 | 2.0 | 0.00 | 0.01 | 0.01 | 71 | 1011.5 |
| 20260904022926 | 84 | 86 | 0.0 | 3.0 | 0.00 | 0.01 | 0.01 | 71 | 1011.3 |
| 20260904022423 | 84 | 89 | 1.0 | 7.0 | 0.00 | 0.01 | 0.01 | 71 | 1011.3 |
| 20260904021919 | 84 | 92 | 1.0 | 5.0 | 0.00 | 0.01 | 0.01 | 72 | 1011.1 |
| 20260904021415 | 84 | 113 | 1.0 | 5.0 | 0.00 | 0.01 | 0.01 | 73 | 1011.0 |
| 20260904020909 | 84 | 78 | 1.0 | 3.0 | 0.00 | 0.01 | 0.01 | 72 | 1011.1 |
| 20260904020405 | 84 | 83 | 0.0 | 2.0 | 0.00 | 0.01 | 0.01 | 72 | 1010.9 |
| 20260904015903 | 84 | 88 | 1.0 | 2.0 | 0.00 | 0.01 | 0.01 | 72 | 1011.1 |
| 20260904015359 | 84 | 85 | 1.0 | 3.0 | 0.00 | 0.01 | 0.01 | 72 | 1010.7 |
| 20260904014857 | 84 | 79 | 1.0 | 2.0 | 0.00 | 0.01 | 0.01 | 71 | 1011.0 |
| 20260904014352 | 85 | 111 | 1.0 | 3.0 | 0.00 | 0.01 | 0.01 | 71 | 1010.7 |
| 20260904013848 | 85 | 81 | 1.0 | 1.0 | 0.00 | 0.01 | 0.01 | 70 | 1010.5 |
| 20260904013344 | 85 | 91 | 0.0 | 2.0 | 0.00 | 0.01 | 0.01 | 70 | 1010.6 |
| 20260904012840 | 85 | 106 | 2.0 | 5.0 | 0.00 | 0.01 | 0.01 | 70 | 1010.5 |
| 20260904012334 | 85 | 74 | 0.0 | 1.0 | 0.00 | 0.01 | 0.01 | 69 | 1010.5 |
| 20260904011833 | 85 | 61 | 2.0 | 5.0 | 0.00 | 0.01 | 0.01 | 68 | 1010.5 |
| 20260904011329 | 85 | 71 | 1.0 | 2.0 | 0.00 | 0.01 | 0.01 | 67 | 1010.3 |
| 20260904010823 | 85 | 72 | 0.0 | 3.0 | 0.00 | 0.01 | 0.01 | 67 | 1010.2 |
| 20260904010321 | 86 | 88 | 1.0 | 5.0 | 0.00 | 0.01 | 0.01 | 66 | 1010.5 |
| 20260904005815 | 86 | 119 | 2.0 | 3.0 | 0.00 | 0.01 | 0.01 | 65 | 1010.3 |
| 20260904005311 | 86 | 106 | 1.0 | 3.0 | 0.00 | 0.01 | 0.01 | 64 | 1010.5 |
| 20260904004805 | 86 | 90 | 1.0 | 2.0 | 0.00 | 0.01 | 0.01 | 64 | 1010.4 |
| 20260904004302 | 86 | 115 | 3.0 | 7.0 | 0.00 | 0.01 | 0.01 | 63 | 1010.3 |
| 20260904003756 | 87 | 75 | 1.0 | 8.0 | 0.00 | 0.01 | 0.01 | 63 | 1010.4 |
| 20260904003253 | 86 | 68 | 2.0 | 5.0 | 0.00 | 0.01 | 0.01 | 64 | 1010.2 |
| 20260904002748 | 87 | 74 | 1.0 | 2.0 | 0.00 | 0.01 | 0.01 | 65 | 1010.4 |
| 20260904002244 | 87 | 76 | 2.0 | 6.0 | 0.00 | 0.01 | 0.01 | 66 | 1010.1 |
| 20260904001738 | 87 | 72 | 0.0 | 5.0 | 0.00 | 0.01 | 0.01 | 66 | 1010.1 |
| 20260904001232 | 87 | 119 | 1.0 | 6.0 | 0.00 | 0.01 | 0.01 | 66 | 1010.2 |
| 20260904000727 | 88 | 91 | 4.0 | 7.0 | 0.00 | 0.01 | 0.01 | 64 | 1010.3 |
| 20260904000222 | 88 | 72 | 0.0 | 3.0 | 0.00 | 0.01 | 0.01 | 64 | 1010.1 |
| 20260903235721 | 88 | 101 | 2.0 | 5.0 | 0.00 | 0.01 | 0.01 | 64 | 1010.0 |
| 20260903235218 | 89 | 55 | 0.0 | 2.0 | 0.00 | 0.01 | 0.01 | 63 | 1010.0 |
| 20260903234712 | 89 | 67 | 0.0 | 6.0 | 0.00 | 0.01 | 0.01 | 63 | 1009.9 |
| 20260903234209 | 89 | 71 | 1.0 | 5.0 | 0.00 | 0.01 | 0.01 | 62 | 1009.9 |
| 20260903233704 | 89 | 100 | 1.0 | 5.0 | 0.00 | 0.01 | 0.01 | 62 | 1009.7 |
| 20260903233200 | 90 | 77 | 3.0 | 5.0 | 0.00 | 0.01 | 0.01 | 61 | 1009.8 |
| 20260903232653 | 90 | 109 | 1.0 | 5.0 | 0.00 | 0.01 | 0.01 | 61 | 1009.7 |
| 20260903232150 | 90 | 77 | 1.0 | 5.0 | 0.00 | 0.01 | 0.01 | 60 | 1009.9 |
| 20260903231649 | 90 | 64 | 1.0 | 6.0 | 0.00 | 0.01 | 0.01 | 61 | 1009.7 |
| 20260903231149 | 90 | 96 | 0.0 | 6.0 | 0.00 | 0.01 | 0.01 | 61 | 1009.8 |
| 20260903230645 | 90 | 147 | 3.0 | 6.0 | 0.00 | 0.01 | 0.01 | 60 | 1009.7 |
| 20260903230144 | 91 | 84 | 0.0 | 2.0 | 0.00 | 0.01 | 0.01 | 59 | 1009.9 |
| 20260903225641 | 91 | 93 | 5.0 | 7.0 | 0.00 | 0.01 | 0.01 | 59 | 1009.8 |
| 20260903225137 | 91 | 81 | 1.0 | 5.0 | 0.00 | 0.01 | 0.01 | 59 | 1009.8 |
| 20260903224633 | 91 | 91 | 0.0 | 2.0 | 0.00 | 0.01 | 0.01 | 59 | 1009.8 |
| 20260903224129 | 91 | 75 | 1.0 | 6.0 | 0.00 | 0.01 | 0.01 | 59 | 1010.0 |
| 20260903223624 | 91 | 64 | 2.0 | 6.0 | 0.00 | 0.01 | 0.01 | 59 | 1009.7 |
| 20260903223122 | 91 | 110 | 1.0 | 5.0 | 0.00 | 0.01 | 0.01 | 58 | 1009.9 |
| 20260903222617 | 91 | 95 | 2.0 | 3.0 | 0.00 | 0.01 | 0.01 | 58 | 1009.7 |
| 20260903222116 | 91 | 82 | 2.0 | 6.0 | 0.00 | 0.01 | 0.01 | 59 | 1009.5 |
| 20260903221612 | 91 | 68 | 3.0 | 5.0 | 0.00 | 0.01 | 0.01 | 60 | 1009.7 |
| 20260903221110 | 92 | 91 | 0.0 | 3.0 | 0.00 | 0.01 | 0.01 | 59 | 1009.6 |
| 20260903220608 | 91 | 64 | 3.0 | 6.0 | 0.00 | 0.01 | 0.01 | 58 | 1009.5 |
| 20260903215601 | 92 | 96 | 1.0 | 3.0 | 0.00 | 0.01 | 0.01 | 59 | 1009.8 |
| 20260903215056 | 91 | 75 | 3.0 | 3.0 | 0.00 | 0.01 | 0.01 | 60 | 1009.8 |
| 20260903214556 | 91 | 113 | 2.0 | 7.0 | 0.00 | 0.01 | 0.01 | 61 | 1010.0 |
| 20260903214051 | 89 | 70 | 1.0 | 5.0 | 0.00 | 0.01 | 0.01 | 63 | 1009.9 |
| 20260903213546 | 91 | 85 | 2.0 | 5.0 | 0.00 | 0.01 | 0.01 | 60 | 1010.0 |
| 20260903213042 | 90 | 73 | 1.0 | 3.0 | 0.00 | 0.01 | 0.01 | 60 | 1010.1 |
| 20260903212538 | 90 | 95 | 1.0 | 5.0 | 0.00 | 0.01 | 0.01 | 62 | 1010.3 |
| 20260903212033 | 91 | 84 | 4.0 | 5.0 | 0.00 | 0.01 | 0.01 | 59 | 1010.2 |
| 20260903211528 | 90 | 105 | 0.0 | 6.0 | 0.00 | 0.01 | 0.01 | 61 | 1010.2 |
| 20260903211025 | 91 | 129 | 3.0 | 9.0 | 0.00 | 0.01 | 0.01 | 61 | 1010.1 |
| 20260903210525 | 91 | 77 | 0.0 | 1.0 | 0.00 | 0.01 | 0.01 | 60 | 1010.2 |
| 20260903210021 | 89 | 77 | 0.0 | 3.0 | 0.00 | 0.01 | 0.01 | 64 | 1010.2 |
| 20260903205514 | 89 | 88 | 3.0 | 5.0 | 0.00 | 0.01 | 0.01 | 64 | 1010.4 |
| 20260903205009 | 89 | 121 | 2.0 | 6.0 | 0.00 | 0.01 | 0.01 | 64 | 1010.5 |
| 20260903204505 | 89 | 136 | 3.0 | 7.0 | 0.00 | 0.01 | 0.01 | 63 | 1010.4 |
| 20260903204000 | 90 | 73 | 0.0 | 3.0 | 0.00 | 0.01 | 0.01 | 63 | 1010.5 |
| 20260903203455 | 90 | 99 | 2.0 | 6.0 | 0.00 | 0.01 | 0.01 | 63 | 1010.6 |
| 20260903202955 | 91 | 141 | 3.0 | 7.0 | 0.00 | 0.01 | 0.01 | 63 | 1010.8 |
| 20260903202451 | 90 | 66 | 1.0 | 5.0 | 0.00 | 0.01 | 0.01 | 63 | 1010.8 |
| 20260903201945 | 89 | 106 | 3.0 | 5.0 | 0.00 | 0.01 | 0.01 | 64 | 1010.8 |
| 20260903201440 | 89 | 61 | 1.0 | 5.0 | 0.00 | 0.01 | 0.01 | 66 | 1011.0 |
| 20260903200939 | 89 | 149 | 1.0 | 3.0 | 0.00 | 0.01 | 0.01 | 66 | 1011.0 |
| 20260903200434 | 89 | 146 | 2.0 | 3.0 | 0.00 | 0.01 | 0.01 | 66 | 1010.9 |
| 20260903195929 | 87 | 136 | 0.0 | 5.0 | 0.00 | 0.01 | 0.01 | 68 | 1011.1 |